TimeCST,TemperatureF,Dew PointF,Humidity,Sea Level PressureIn,VisibilityMPH,Wind Direction,Wind SpeedMPH,Gust SpeedMPH,PrecipitationIn,Events,Conditions,WindDirDegrees,DateUTC
12:53 AM,26.1,21.0,81,30.18,10.0,West,5.8,-,N/A,,Clear,280,2013-12-28 06:53:00
1:53 AM,27.0,21.0,78,30.15,10.0,SW,3.5,-,N/A,,Clear,230,2013-12-28 07:53:00
2:53 AM,25.0,19.0,78,30.13,10.0,WSW,6.9,-,N/A,,Clear,240,2013-12-28 08:53:00
3:53 AM,24.1,18.0,77,30.11,10.0,WSW,6.9,-,N/A,,Clear,250,2013-12-28 09:53:00
4:53 AM,21.9,18.0,85,30.09,10.0,South,6.9,-,N/A,,Clear,190,2013-12-28 10:53:00
5:53 AM,21.0,17.1,85,30.09,10.0,SW,5.8,-,N/A,,Clear,220,2013-12-28 11:53:00
6:53 AM,21.0,17.1,85,30.09,10.0,South,6.9,-,N/A,,Clear,190,2013-12-28 12:53:00
7:53 AM,19.9,16.0,85,30.09,10.0,SW,6.9,-,N/A,,Clear,220,2013-12-28 13:53:00
8:53 AM,25.0,19.9,81,30.07,10.0,SSW,5.8,-,N/A,,Clear,200,2013-12-28 14:53:00
9:53 AM,30.9,25.0,79,30.03,10.0,South,8.1,-,N/A,,Clear,190,2013-12-28 15:53:00
10:53 AM,36.0,28.0,73,29.99,10.0,South,11.5,-,N/A,,Clear,190,2013-12-28 16:53:00
11:53 AM,43.0,27.0,53,29.94,10.0,South,13.8,-,N/A,,Clear,190,2013-12-28 17:53:00
12:53 PM,46.9,26.1,44,29.89,10.0,SSW,13.8,-,N/A,,Clear,200,2013-12-28 18:53:00
1:53 PM,50.0,25.0,38,29.82,10.0,South,15.0,-,N/A,,Clear,190,2013-12-28 19:53:00
2:53 PM,52.0,24.1,34,29.80,10.0,SSW,16.1,-,N/A,,Clear,200,2013-12-28 20:53:00
3:53 PM,51.1,25.0,36,29.79,10.0,South,10.4,-,N/A,,Clear,180,2013-12-28 21:53:00
4:53 PM,48.9,27.0,43,29.79,10.0,South,8.1,-,N/A,,Clear,170,2013-12-28 22:53:00
5:53 PM,39.9,27.0,60,29.82,10.0,South,9.2,-,N/A,,Clear,170,2013-12-28 23:53:00
6:53 PM,37.9,26.1,62,29.83,10.0,SSE,5.8,-,N/A,,Clear,160,2013-12-29 00:53:00
7:53 PM,39.0,26.1,60,29.84,10.0,ESE,4.6,-,N/A,,Clear,110,2013-12-29 01:53:00
8:53 PM,32.0,25.0,75,29.87,10.0,North,8.1,-,N/A,,Clear,360,2013-12-29 02:53:00
9:53 PM,32.0,25.0,75,29.88,10.0,NNW,12.7,-,N/A,,Clear,340,2013-12-29 03:53:00
10:53 PM,37.0,24.1,59,29.90,10.0,North,23.0,29.9,N/A,,Clear,360,2013-12-29 04:53:00
11:53 PM,36.0,25.0,64,29.96,10.0,North,26.5,36.8,N/A,,Clear,10,2013-12-29 05:53:00